| time (UTC) | temp C | wind direction | speed KPH | gust KPH | rain 1hr cm | rain 24hr cm | rain mn cm | humidity % | barometer mb |
| 20260905172005 | 38 | 226 | 8.0 | 16.1 | 0.00 | 0.00 | 0.00 | 26 | 1008.7 |
| 20260905170004 | 38 | 270 | 8.0 | 11.3 | 0.00 | 0.00 | 0.00 | 27 | 1008.6 |
| 20260905165006 | 39 | 233 | 11.3 | 14.5 | 0.00 | 0.00 | 0.00 | 26 | 1008.6 |
| 20260905164004 | 40 | 248 | 1.6 | 11.3 | 0.00 | 0.00 | 0.00 | 26 | 1008.6 |
| 20260905162005 | 39 | 270 | 11.3 | 12.9 | 0.00 | 0.00 | 0.00 | 26 | 1008.7 |
| 20260905160004 | 40 | 254 | 4.8 | 11.3 | 0.00 | 0.00 | 0.00 | 25 | 1008.7 |
| 20260905155015 | 40 | 270 | 6.4 | 11.3 | 0.00 | 0.00 | 0.00 | 25 | 1008.7 |
| 20260905154006 | 40 | 276 | 6.4 | 11.3 | 0.00 | 0.00 | 0.00 | 24 | 1008.7 |
| 20260905153010 | 40 | 283 | 8.0 | 12.9 | 0.00 | 0.00 | 0.00 | 24 | 1008.9 |
| 20260905152006 | 40 | 233 | 4.8 | 11.3 | 0.00 | 0.00 | 0.00 | 25 | 1009.0 |
| 20260905151006 | 39 | 262 | 1.6 | 12.9 | 0.00 | 0.00 | 0.00 | 26 | 1009.0 |
| 20260905150007 | 39 | 249 | 1.6 | 12.9 | 0.00 | 0.00 | 0.00 | 26 | 1009.2 |
| 20260905145006 | 39 | 252 | 1.6 | 11.3 | 0.00 | 0.00 | 0.00 | 27 | 1009.2 |
| 20260905144006 | 39 | 275 | 3.2 | 12.9 | 0.00 | 0.00 | 0.00 | 27 | 1009.2 |
| 20260905143006 | 40 | 270 | 0.0 | 11.3 | 0.00 | 0.00 | 0.00 | 27 | 1009.4 |
| 20260905141006 | 39 | 251 | 0.0 | 9.7 | 0.00 | 0.00 | 0.00 | 28 | 1009.5 |
| 20260905140005 | 38 | 283 | 0.0 | 9.7 | 0.00 | 0.00 | 0.00 | 29 | 1009.7 |
| 20260905134006 | 39 | 299 | 0.0 | 1.6 | 0.00 | 0.00 | 0.00 | 29 | 1009.8 |
| 20260905133006 | 37 | 270 | 4.8 | 14.5 | 0.00 | 0.00 | 0.00 | 33 | 1009.9 |
| 20260905132005 | 37 | 346 | 1.6 | 11.3 | 0.00 | 0.00 | 0.00 | 34 | 1009.8 |
| 20260905131006 | 37 | 289 | 0.0 | 0.0 | 0.00 | 0.00 | 0.00 | 35 | 1009.9 |
| 20260905130006 | 37 | 17 | 0.0 | 0.0 | 0.00 | 0.00 | 0.00 | 35 | 1010.0 |
| 20260905123006 | 37 | 267 | 1.6 | 9.7 | 0.00 | 0.00 | 0.00 | 36 | 1010.3 |
| 20260905122006 | 36 | 292 | 4.8 | 12.9 | 0.00 | 0.00 | 0.00 | 35 | 1010.4 |
| 20260905121006 | 37 | 343 | 0.0 | 0.0 | 0.00 | 0.00 | 0.00 | 36 | 1010.7 |
| 20260905115006 | 33 | 338 | 0.0 | 0.0 | 0.00 | 0.00 | 0.00 | 41 | 1010.8 |
| 20260905114006 | 33 | 62 | 0.0 | 0.0 | 0.00 | 0.00 | 0.00 | 42 | 1010.8 |
| 20260905113006 | 32 | 325 | 0.0 | 0.0 | 0.00 | 0.00 | 0.00 | 45 | 1011.0 |
| 20260905112006 | 32 | 5 | 0.0 | 9.7 | 0.00 | 0.00 | 0.00 | 45 | 1011.0 |
| 20260905110007 | 31 | 45 | 4.8 | 9.7 | 0.00 | 0.00 | 0.00 | 47 | 1011.2 |
| 20260905105006 | 32 | 33 | 0.0 | 14.5 | 0.00 | 0.00 | 0.00 | 43 | 1011.3 |
| 20260905104005 | 31 | 28 | 9.7 | 12.9 | 0.00 | 0.00 | 0.00 | 45 | 1011.3 |
| 20260905103005 | 30 | 50 | 9.7 | 12.9 | 0.00 | 0.00 | 0.00 | 48 | 1011.5 |
| 20260905102006 | 30 | 37 | 9.7 | 12.9 | 0.00 | 0.00 | 0.00 | 51 | 1011.6 |
| 20260905101005 | 30 | 22 | 8.0 | 9.7 | 0.00 | 0.00 | 0.00 | 54 | 1011.4 |
| 20260905095006 | 29 | 309 | 0.0 | 0.0 | 0.00 | 0.00 | 0.00 | 57 | 1011.5 |
| 20260905094006 | 28 | 63 | 0.0 | 0.0 | 0.00 | 0.00 | 0.00 | 59 | 1011.5 |
| 20260905091006 | 26 | 279 | 0.0 | 0.0 | 0.00 | 0.00 | 0.00 | 65 | 1011.4 |
| 20260905090005 | 26 | 338 | 0.0 | 0.0 | 0.00 | 0.00 | 0.00 | 67 | 1011.3 |
| 20260905085006 | 25 | 352 | 0.0 | 0.0 | 0.00 | 0.00 | 0.00 | 71 | 1011.2 |
| 20260905084006 | 24 | 22 | 0.0 | 0.0 | 0.00 | 0.00 | 0.00 | 71 | 1011.2 |
| 20260905083005 | 25 | 28 | 0.0 | 0.0 | 0.00 | 0.00 | 0.00 | 69 | 1011.1 |
| 20260905082005 | 23 | 22 | 0.0 | 0.0 | 0.00 | 0.00 | 0.00 | 72 | 1011.0 |
| 20260905081005 | 23 | 5 | 0.0 | 0.0 | 0.00 | 0.00 | 0.00 | 73 | 1011.1 |
| 20260905075006 | 23 | 32 | 0.0 | 0.0 | 0.00 | 0.00 | 0.00 | 75 | 1011.2 |
| 20260905074006 | 22 | 13 | 0.0 | 0.0 | 0.00 | 0.00 | 0.00 | 78 | 1011.2 |
| 20260905073008 | 21 | 338 | 0.0 | 0.0 | 0.00 | 0.00 | 0.00 | 83 | 1011.1 |
| 20260905072006 | 21 | 273 | 0.0 | 0.0 | 0.00 | 0.00 | 0.00 | 84 | 1011.1 |
| 20260905070007 | 20 | 38 | 0.0 | 0.0 | 0.00 | 0.00 | 0.00 | 90 | 1010.6 |
| 20260905065005 | 19 | 25 | 0.0 | 0.0 | 0.00 | 0.00 | 0.00 | 90 | 1010.6 |
| 20260905064006 | 19 | 87 | 0.0 | 0.0 | 0.00 | 0.00 | 0.00 | 91 | 1010.6 |
| 20260905063005 | 19 | 68 | 0.0 | 0.0 | 0.00 | 0.00 | 0.00 | 90 | 1010.5 |
| 20260905061007 | 19 | 125 | 0.0 | 0.0 | 0.00 | 0.00 | 0.00 | 89 | 1010.3 |
| 20260905060006 | 20 | 200 | 0.0 | 0.0 | 0.00 | 0.00 | 0.00 | 88 | 1010.1 |
| 20260905055007 | 20 | 175 | 0.0 | 1.6 | 0.00 | 0.00 | 0.00 | 88 | 1010.2 |
| 20260905054005 | 19 | 163 | 0.0 | 4.8 | 0.00 | 0.00 | 0.00 | 89 | 1010.2 |
| 20260905053006 | 19 | 172 | 0.0 | 1.6 | 0.00 | 0.00 | 0.00 | 89 | 1010.2 |
| 20260905052005 | 18 | 180 | 0.0 | 1.6 | 0.00 | 0.00 | 0.00 | 95 | 1010.0 |
| 20260905050006 | 18 | 208 | 0.0 | 1.6 | 0.00 | 0.00 | 0.00 | 95 | 1009.9 |
| 20260905045005 | 18 | 185 | 0.0 | 0.0 | 0.00 | 0.00 | 0.00 | 95 | 1009.8 |
| 20260905044005 | 19 | 202 | 0.0 | 0.0 | 0.00 | 0.00 | 0.00 | 95 | 1009.8 |
| 20260905043005 | 19 | 231 | 0.0 | 0.0 | 0.00 | 0.00 | 0.00 | 95 | 1009.8 |
| 20260905042006 | 19 | 202 | 0.0 | 0.0 | 0.00 | 0.00 | 0.00 | 94 | 1009.8 |
| 20260905041005 | 19 | 220 | 0.0 | 0.0 | 0.00 | 0.00 | 0.00 | 93 | 1009.9 |
| 20260905040005 | 19 | 225 | 0.0 | 0.0 | 0.00 | 0.00 | 0.00 | 89 | 1009.8 |
| 20260905035006 | 20 | 68 | 0.0 | 0.0 | 0.00 | 0.00 | 0.00 | 87 | 1009.8 |
| 20260905033005 | 20 | 44 | 0.0 | 0.0 | 0.00 | 0.00 | 0.00 | 88 | 1009.8 |
| 20260905032005 | 20 | 72 | 0.0 | 0.0 | 0.00 | 0.00 | 0.00 | 88 | 1009.8 |
| 20260905031005 | 20 | 22 | 0.0 | 0.0 | 0.00 | 0.00 | 0.00 | 87 | 1009.8 |
| 20260905030006 | 21 | 22 | 0.0 | 0.0 | 0.00 | 0.00 | 0.00 | 86 | 1010.0 |
| 20260905024005 | 22 | 68 | 0.0 | 0.0 | 0.00 | 0.00 | 0.00 | 78 | 1009.9 |
| 20260905023005 | 22 | 180 | 0.0 | 0.0 | 0.00 | 0.00 | 0.00 | 76 | 1009.8 |
| 20260905020005 | 22 | 184 | 0.0 | 0.0 | 0.00 | 0.00 | 0.00 | 80 | 1010.1 |
| 20260905015005 | 22 | 202 | 0.0 | 0.0 | 0.00 | 0.00 | 0.00 | 80 | 1010.2 |
| 20260905014006 | 22 | 154 | 0.0 | 0.0 | 0.00 | 0.00 | 0.00 | 79 | 1010.2 |
| 20260905012005 | 21 | 190 | 3.2 | 9.7 | 0.00 | 0.00 | 0.00 | 80 | 1010.3 |
| 20260905011005 | 20 | 221 | 0.0 | 0.0 | 0.00 | 0.00 | 0.00 | 89 | 1010.2 |
| 20260905010006 | 20 | 225 | 0.0 | 0.0 | 0.00 | 0.00 | 0.00 | 88 | 1010.4 |
| 20260905005005 | 21 | 231 | 0.0 | 0.0 | 0.00 | 0.00 | 0.00 | 86 | 1010.3 |
| 20260905004005 | 21 | 133 | 0.0 | 0.0 | 0.00 | 0.00 | 0.00 | 86 | 1010.3 |
| 20260905003005 | 21 | 202 | 0.0 | 0.0 | 0.00 | 0.00 | 0.00 | 85 | 1010.3 |
| 20260905002005 | 22 | 96 | 0.0 | 0.0 | 0.00 | 0.00 | 0.00 | 82 | 1010.3 |
| 20260905001005 | 22 | 313 | 0.0 | 0.0 | 0.00 | 0.00 | 0.00 | 81 | 1010.2 |
| 20260905000005 | 22 | 0 | 0.0 | 0.0 | 0.00 | 0.00 | 0.00 | 81 | 1010.4 |
| 20260904235005 | 22 | 68 | 0.0 | 0.0 | 0.00 | 0.00 | 0.00 | 78 | 1010.5 |
| 20260904234005 | 23 | 225 | 0.0 | 0.0 | 0.00 | 0.00 | 0.00 | 75 | 1010.5 |
| 20260904233005 | 23 | 202 | 0.0 | 0.0 | 0.00 | 0.00 | 0.00 | 73 | 1010.5 |
| 20260904232006 | 23 | 208 | 0.0 | 0.0 | 0.00 | 0.00 | 0.00 | 73 | 1010.5 |
| 20260904231005 | 24 | 225 | 0.0 | 0.0 | 0.00 | 0.00 | 0.00 | 70 | 1010.7 |
| 20260904230007 | 24 | 202 | 0.0 | 0.0 | 0.00 | 0.00 | 0.00 | 71 | 1010.6 |
| 20260904225006 | 25 | 200 | 0.0 | 1.6 | 0.00 | 0.00 | 0.00 | 68 | 1010.7 |
| 20260904224005 | 26 | 62 | 0.0 | 0.0 | 0.00 | 0.00 | 0.00 | 57 | 1010.7 |
| 20260904223005 | 26 | 58 | 0.0 | 0.0 | 0.00 | 0.00 | 0.00 | 56 | 1010.6 |
| 20260904222005 | 27 | 17 | 0.0 | 0.0 | 0.00 | 0.00 | 0.00 | 53 | 1010.8 |
| 20260904221006 | 27 | 55 | 0.0 | 0.0 | 0.00 | 0.00 | 0.00 | 53 | 1010.9 |
| 20260904220005 | 27 | 63 | 0.0 | 12.9 | 0.00 | 0.00 | 0.00 | 54 | 1010.9 |
| 20260904215006 | 27 | 62 | 4.8 | 12.9 | 0.00 | 0.00 | 0.00 | 56 | 1011.1 |
| 20260904214005 | 27 | 49 | 3.2 | 11.3 | 0.00 | 0.00 | 0.00 | 59 | 1011.1 |
| 20260904213005 | 26 | 45 | 8.0 | 11.3 | 0.00 | 0.00 | 0.00 | 62 | 1010.9 |
| 20260904212006 | 26 | 63 | 6.4 | 12.9 | 0.00 | 0.00 | 0.00 | 62 | 1011.1 |
| 20260904211005 | 26 | 45 | 0.0 | 1.6 | 0.00 | 0.00 | 0.00 | 63 | 1011.2 |
| 20260904210005 | 26 | 71 | 0.0 | 1.6 | 0.00 | 0.00 | 0.00 | 63 | 1011.2 |
| 20260904205005 | 26 | 22 | 0.0 | 0.0 | 0.00 | 0.00 | 0.00 | 62 | 1011.2 |
| 20260904203005 | 27 | 42 | 0.0 | 12.9 | 0.00 | 0.00 | 0.00 | 62 | 1011.2 |
| 20260904202005 | 27 | 59 | 0.0 | 0.0 | 0.00 | 0.00 | 0.00 | 66 | 1011.2 |
| 20260904201005 | 27 | 35 | 0.0 | 0.0 | 0.00 | 0.00 | 0.00 | 64 | 1011.0 |
| 20260904200005 | 27 | 45 | 0.0 | 0.0 | 0.00 | 0.00 | 0.00 | 64 | 1010.8 |
| 20260904195006 | 27 | 31 | 8.0 | 16.1 | 0.00 | 0.00 | 0.00 | 62 | 1010.6 |
| 20260904194006 | 27 | 33 | 0.0 | 1.6 | 0.00 | 0.00 | 0.00 | 68 | 1010.6 |
| 20260904193005 | 27 | 22 | 0.0 | 0.0 | 0.00 | 0.00 | 0.00 | 68 | 1010.6 |
| 20260904192005 | 27 | 45 | 0.0 | 0.0 | 0.00 | 0.00 | 0.00 | 70 | 1010.4 |
| 20260904190006 | 28 | 315 | 0.0 | 0.0 | 0.00 | 0.00 | 0.00 | 65 | 1010.6 |
| 20260904185005 | 28 | 211 | 0.0 | 0.0 | 0.00 | 0.00 | 0.00 | 64 | 1010.3 |
| 20260904184006 | 28 | 354 | 0.0 | 0.0 | 0.00 | 0.00 | 0.00 | 64 | 1010.3 |
| 20260904183005 | 28 | 35 | 0.0 | 0.0 | 0.00 | 0.00 | 0.00 | 63 | 1010.6 |
| 20260904181005 | 29 | 65 | 0.0 | 0.0 | 0.00 | 0.00 | 0.00 | 58 | 1011.4 |
| 20260904180005 | 29 | 184 | 0.0 | 0.0 | 0.00 | 0.00 | 0.00 | 59 | 1011.3 |
| 20260904175005 | 29 | 148 | 0.0 | 0.0 | 0.00 | 0.00 | 0.00 | 61 | 1011.0 |
| 20260904174005 | 29 | 231 | 0.0 | 9.7 | 0.00 | 0.00 | 0.00 | 61 | 1011.0 |